WZZ9926 EHEH-EPWA

Flight info

Callsign WZZ9926
Flight time N/A
Altitude 37000
Route VELNI Y869 SUMOP L179 MEVEL Z44 HMM DCT TOLTA DCT MAG DCT GOVEN DCT ADVAB DCT OBOKU DCT DOSIX DCT BIMPA
Aircraft A320/M-SDE1E2E3FGIJ1J4RWXY/LB1

Departure

Time 2026-05-05 08:42
Airport Eindhoven Airport (EHEH)

Arrival

Time N/A
Airport Warsaw Chopin Airport (EPWA)
Time Latitude Longitude Altitude Speed Heading
2026-05-05 08:14 51.45547 5.38712 63 ft 0 kts 125°
2026-05-05 08:29 51.45551 5.38703 63 ft 2 kts 125°
2026-05-05 08:29 51.45560 5.38683 63 ft 2 kts 125°
2026-05-05 08:30 51.45577 5.38644 63 ft 2 kts 125°
2026-05-05 08:30 51.45586 5.38624 63 ft 2 kts 125°
2026-05-05 08:30 51.45594 5.38605 63 ft 1 kts 125°
2026-05-05 08:30 51.45601 5.38594 62 ft 1 kts 173°
2026-05-05 08:31 51.45609 5.38596 62 ft 0 kts 223°
2026-05-05 08:31 51.45614 5.38603 62 ft 0 kts 216°
2026-05-05 08:33 51.45612 5.38601 62 ft 0 kts 216°
2026-05-05 08:33 51.45577 5.38561 62 ft 14 kts 210°
2026-05-05 08:33 51.45557 5.38640 63 ft 11 kts 34°
2026-05-05 08:34 51.45638 5.38686 62 ft 13 kts 18°
2026-05-05 08:34 51.45722 5.38759 61 ft 13 kts 36°
2026-05-05 08:34 51.45801 5.38755 61 ft 13 kts 308°
2026-05-05 08:34 51.45857 5.38631 61 ft 13 kts 305°
2026-05-05 08:35 51.45915 5.38503 61 ft 14 kts 306°
2026-05-05 08:35 51.45975 5.38368 61 ft 14 kts 306°
2026-05-05 08:35 51.45976 5.38248 61 ft 12 kts 214°
2026-05-05 08:35 51.45900 5.38168 61 ft 13 kts 213°
2026-05-05 08:36 51.45825 5.38086 63 ft 12 kts 213°
2026-05-05 08:36 51.45755 5.38010 64 ft 12 kts 214°
2026-05-05 08:36 51.45684 5.37932 64 ft 12 kts 214°
2026-05-05 08:36 51.45609 5.37849 64 ft 13 kts 215°
2026-05-05 08:37 51.45528 5.37753 64 ft 14 kts 215°
2026-05-05 08:37 51.45443 5.37655 65 ft 15 kts 215°
2026-05-05 08:37 51.45360 5.37559 66 ft 14 kts 216°
2026-05-05 08:37 51.45281 5.37468 67 ft 13 kts 212°
2026-05-05 08:38 51.45192 5.37378 67 ft 16 kts 214°
2026-05-05 08:38 51.45094 5.37266 69 ft 16 kts 215°
2026-05-05 08:38 51.45004 5.37161 71 ft 15 kts 216°
2026-05-05 08:38 51.44914 5.37054 70 ft 16 kts 217°
2026-05-05 08:39 51.44827 5.36947 71 ft 14 kts 218°
2026-05-05 08:39 51.44754 5.36848 71 ft 11 kts 215°
2026-05-05 08:39 51.44694 5.36796 71 ft 8 kts 208°
2026-05-05 08:39 51.44631 5.36737 70 ft 12 kts 211°
2026-05-05 08:40 51.44544 5.36643 69 ft 17 kts 216°
2026-05-05 08:40 51.44440 5.36527 70 ft 17 kts 211°
2026-05-05 08:40 51.44338 5.36419 71 ft 17 kts 214°
2026-05-05 08:40 51.44237 5.36308 71 ft 17 kts 215°
2026-05-05 08:41 51.44137 5.36195 71 ft 17 kts 214°
2026-05-05 08:41 51.44036 5.36084 71 ft 17 kts 211°
2026-05-05 08:41 51.43950 5.36153 71 ft 12 kts 117°
2026-05-05 08:41 51.43954 5.36267 71 ft 10 kts 41°
2026-05-05 08:42 51.44051 5.36375 71 ft 34 kts 34°
2026-05-05 08:42 51.44476 5.36848 68 ft 108 kts 35°
2026-05-05 08:42 51.45267 5.37737 116 ft 160 kts 33°
2026-05-05 08:42 51.46195 5.38782 786 ft 160 kts 32°
2026-05-05 08:43 51.47144 5.39836 1535 ft 161 kts 32°
2026-05-05 08:43 51.48085 5.40890 2281 ft 162 kts 31°
2026-05-05 08:43 51.49019 5.41933 2916 ft 163 kts 31°
2026-05-05 08:43 51.49956 5.42972 3500 ft 167 kts 32°
2026-05-05 08:44 51.50865 5.44227 3889 ft 188 kts 52°
2026-05-05 08:44 51.51233 5.46347 4255 ft 214 kts 91°
2026-05-05 08:44 51.50932 5.48865 4621 ft 239 kts 102°
2026-05-05 08:44 51.50478 5.51482 5391 ft 244 kts 103°
2026-05-05 08:45 51.50030 5.54113 6240 ft 247 kts 102°
2026-05-05 08:45 51.49603 5.56778 6974 ft 253 kts 102°
2026-05-05 08:45 51.49188 5.59553 7656 ft 263 kts 101°
2026-05-05 08:45 51.48779 5.62547 8164 ft 281 kts 100°
2026-05-05 08:46 51.48521 5.65833 8738 ft 296 kts 90°
2026-05-05 08:46 51.48625 5.69138 9531 ft 300 kts 83°
2026-05-05 08:46 51.48901 5.72604 10352 ft 305 kts 82°
2026-05-05 08:46 51.49205 5.76086 10855 ft 321 kts 82°
2026-05-05 08:47 51.49524 5.79824 11483 ft 332 kts 83°
2026-05-05 08:47 51.49831 5.83535 12277 ft 336 kts 83°
2026-05-05 08:47 51.50137 5.87362 13037 ft 341 kts 84°
2026-05-05 08:47 51.50447 5.91299 13743 ft 347 kts 84°
2026-05-05 08:48 51.50756 5.95271 14431 ft 354 kts 84°
2026-05-05 08:48 51.51070 5.99322 15109 ft 360 kts 84°
2026-05-05 08:48 51.51391 6.03471 15777 ft 366 kts 84°
2026-05-05 08:48 51.51712 6.07647 16425 ft 372 kts 84°
2026-05-05 08:49 51.52040 6.11951 17069 ft 378 kts 84°
2026-05-05 08:49 51.52370 6.16272 17692 ft 384 kts 84°
2026-05-05 08:49 51.52731 6.20720 18308 ft 390 kts 82°
2026-05-05 08:49 51.53192 6.25184 18909 ft 396 kts 81°
2026-05-05 08:50 51.53683 6.29654 19486 ft 402 kts 80°
2026-05-05 08:50 51.54189 6.34230 20053 ft 407 kts 80°
2026-05-05 08:50 51.54698 6.38875 20610 ft 413 kts 80°
2026-05-05 08:50 51.55209 6.43602 21159 ft 419 kts 80°
2026-05-05 08:51 51.55716 6.48330 21690 ft 424 kts 80°
2026-05-05 08:51 51.56226 6.53101 22209 ft 430 kts 79°
2026-05-05 08:51 51.57032 6.57873 22704 ft 434 kts 66°
2026-05-05 08:51 51.58426 6.62258 23202 ft 435 kts 52°
2026-05-05 08:52 51.60223 6.66251 23711 ft 436 kts 47°
2026-05-05 08:52 51.62126 6.70128 24161 ft 441 kts 47°
2026-05-05 08:52 51.64072 6.74149 24621 ft 446 kts 48°
2026-05-05 08:52 51.66013 6.78277 25086 ft 451 kts 48°
2026-05-05 08:53 51.67941 6.82457 25536 ft 455 kts 49°
2026-05-05 08:53 51.69875 6.86680 25972 ft 459 kts 49°
2026-05-05 08:53 51.71829 6.90949 26400 ft 463 kts 48°
2026-05-05 08:53 51.73804 6.95266 26819 ft 467 kts 48°
2026-05-05 08:54 51.75812 6.99660 27235 ft 471 kts 48°
2026-05-05 08:54 51.77813 7.04048 27658 ft 474 kts 47°
2026-05-05 08:54 51.79838 7.08500 28090 ft 476 kts 47°
2026-05-05 08:54 51.81887 7.13011 28520 ft 479 kts 47°
2026-05-05 08:55 51.83782 7.17631 28918 ft 488 kts 56°
2026-05-05 08:55 51.85145 7.22955 29325 ft 498 kts 71°
2026-05-05 08:55 51.85748 7.28589 29692 ft 504 kts 85°
2026-05-05 08:55 51.85820 7.34360 30049 ft 507 kts 90°
2026-05-05 08:56 51.85741 7.40156 30360 ft 511 kts 91°
2026-05-05 08:56 51.85663 7.45912 30705 ft 513 kts 90°
2026-05-05 08:56 51.85629 7.51722 31145 ft 513 kts 89°
2026-05-05 08:56 51.85633 7.57473 31577 ft 513 kts 89°
2026-05-05 08:57 51.85655 7.63246 31978 ft 513 kts 88°
2026-05-05 08:57 51.85627 7.69194 32348 ft 514 kts 92°
2026-05-05 08:57 51.85373 7.74922 32680 ft 514 kts 97°
2026-05-05 08:57 51.84914 7.80715 33017 ft 514 kts 99°
2026-05-05 08:58 51.84392 7.86504 33342 ft 515 kts 99°
2026-05-05 08:58 51.83865 7.92199 33650 ft 515 kts 99°
2026-05-05 08:58 51.83335 7.97952 33951 ft 516 kts 99°
2026-05-05 08:58 51.82807 8.03762 34249 ft 517 kts 99°
2026-05-05 08:59 51.82288 8.09532 34558 ft 517 kts 99°
2026-05-05 08:59 51.81769 8.15294 34875 ft 516 kts 99°
2026-05-05 08:59 51.81251 8.21049 35188 ft 515 kts 99°
2026-05-05 08:59 51.80734 8.26765 35490 ft 515 kts 99°
2026-05-05 09:00 51.80203 8.32587 35768 ft 515 kts 99°
2026-05-05 09:00 51.79673 8.38348 36004 ft 516 kts 99°
2026-05-05 09:00 51.79145 8.44064 36218 ft 517 kts 99°
2026-05-05 09:00 51.78601 8.49919 36428 ft 518 kts 99°
2026-05-05 09:01 51.78064 8.55674 36628 ft 519 kts 99°
2026-05-05 09:01 51.77513 8.61547 36823 ft 520 kts 99°
2026-05-05 09:01 51.76955 8.67469 36901 ft 522 kts 100°
2026-05-05 09:02 51.75829 8.79307 36910 ft 522 kts 100°
2026-05-05 09:02 51.74686 8.91181 36912 ft 522 kts 100°
2026-05-05 09:03 51.73524 9.03049 36913 ft 521 kts 99°
2026-05-05 09:03 51.72369 9.14781 36912 ft 519 kts 98°
2026-05-05 09:04 51.71215 9.26465 36912 ft 519 kts 98°
2026-05-05 09:04 51.70031 9.38302 36911 ft 519 kts 97°
2026-05-05 09:05 51.69455 9.50102 36911 ft 516 kts 86°
2026-05-05 09:05 51.70122 9.61775 36911 ft 510 kts 73°
2026-05-05 09:06 51.71740 9.73154 36911 ft 507 kts 70°
2026-05-05 09:06 51.73426 9.84329 36912 ft 508 kts 71°
2026-05-05 09:07 51.75049 9.95542 36912 ft 508 kts 71°
2026-05-05 09:07 51.76653 10.06883 36912 ft 508 kts 71°
2026-05-05 09:08 51.78236 10.18203 36912 ft 508 kts 71°
2026-05-05 09:08 51.79817 10.29588 36912 ft 508 kts 71°
2026-05-05 09:09 51.81361 10.40788 36912 ft 508 kts 71°
2026-05-05 09:09 51.82892 10.51982 36911 ft 508 kts 71°
2026-05-05 09:10 51.84412 10.63174 36911 ft 508 kts 71°
2026-05-05 09:10 51.85918 10.74345 36911 ft 508 kts 72°
2026-05-05 09:11 51.87426 10.85646 36913 ft 508 kts 72°
2026-05-05 09:11 51.88895 10.96818 36910 ft 504 kts 71°
2026-05-05 09:12 51.90335 11.07785 36900 ft 498 kts 70°
2026-05-05 09:12 51.91785 11.18811 36892 ft 497 kts 70°
2026-05-05 09:13 51.93212 11.29775 36887 ft 497 kts 70°
2026-05-05 09:13 51.94632 11.40810 36886 ft 497 kts 70°
2026-05-05 09:14 51.96041 11.51861 36885 ft 497 kts 70°
2026-05-05 09:14 51.97429 11.62831 36884 ft 497 kts 70°
2026-05-05 09:15 51.98825 11.73950 36891 ft 499 kts 71°
2026-05-05 09:15 51.99763 11.85291 36902 ft 507 kts 80°
2026-05-05 09:16 52.00140 11.96898 36907 ft 508 kts 81°
2026-05-05 09:16 52.00467 12.08435 36909 ft 508 kts 81°
2026-05-05 09:17 52.00811 12.19989 36910 ft 508 kts 81°
2026-05-05 09:17 52.01159 12.31639 36910 ft 508 kts 81°
2026-05-05 09:18 52.01492 12.43114 36909 ft 508 kts 81°
2026-05-05 09:18 52.01813 12.54521 36909 ft 508 kts 81°
2026-05-05 09:19 52.02124 12.66017 36907 ft 507 kts 82°
2026-05-05 09:19 52.02427 12.77522 36909 ft 508 kts 82°
2026-05-05 09:20 52.02716 12.89032 36905 ft 508 kts 82°
2026-05-05 09:20 52.02990 13.00455 36899 ft 507 kts 81°
2026-05-05 09:21 52.03244 13.11819 36893 ft 502 kts 80°
2026-05-05 09:21 52.03488 13.23060 36889 ft 494 kts 79°
2026-05-05 09:22 52.03733 13.34209 36885 ft 492 kts 79°
2026-05-05 09:22 52.03967 13.45331 36885 ft 492 kts 79°
2026-05-05 09:23 52.04185 13.56485 36884 ft 492 kts 79°
2026-05-05 09:23 52.04392 13.67616 36881 ft 492 kts 80°
2026-05-05 09:24 52.04589 13.78801 36885 ft 493 kts 80°
2026-05-05 09:24 52.04772 13.89899 36886 ft 493 kts 80°
2026-05-05 09:25 52.04945 14.01016 36885 ft 493 kts 80°
2026-05-05 09:25 52.05110 14.12197 36885 ft 493 kts 80°
2026-05-05 09:26 52.05264 14.23391 36885 ft 493 kts 80°
2026-05-05 09:26 52.05405 14.34517 36885 ft 492 kts 80°
2026-05-05 09:27 52.05538 14.45687 36885 ft 492 kts 80°
2026-05-05 09:27 52.05659 14.56803 36884 ft 492 kts 80°
2026-05-05 09:28 52.05769 14.67969 36881 ft 492 kts 81°
2026-05-05 09:28 52.05979 14.79186 36885 ft 490 kts 78°
2026-05-05 09:29 52.06475 14.90386 36888 ft 490 kts 77°
2026-05-05 09:29 52.06923 15.01422 36890 ft 483 kts 82°
2026-05-05 09:30 52.06925 15.12356 36891 ft 471 kts 86°
2026-05-05 09:30 52.06853 15.23017 36886 ft 469 kts 86°
2026-05-05 09:31 52.06808 15.33672 36885 ft 470 kts 85°
2026-05-05 09:31 52.06774 15.44312 36885 ft 470 kts 85°
2026-05-05 09:32 52.06736 15.54905 36884 ft 469 kts 85°
2026-05-05 09:32 52.06690 15.65456 36884 ft 469 kts 86°
2026-05-05 09:33 52.06635 15.76001 36885 ft 469 kts 86°
2026-05-05 09:33 52.06570 15.86584 36885 ft 468 kts 86°
2026-05-05 09:34 52.06495 15.97133 36885 ft 467 kts 86°
2026-05-05 09:34 52.06411 16.07632 36885 ft 466 kts 86°
2026-05-05 09:35 52.06319 16.18164 36885 ft 466 kts 86°
2026-05-05 09:35 52.06162 16.33962 36884 ft 465 kts 86°
2026-05-05 09:36 52.06045 16.44439 36884 ft 465 kts 86°
2026-05-05 09:36 52.05919 16.54987 36884 ft 464 kts 86°
2026-05-05 09:37 52.05784 16.65460 36884 ft 464 kts 87°
2026-05-05 09:37 52.05640 16.75931 36885 ft 464 kts 87°
2026-05-05 09:38 52.05481 16.86425 36889 ft 465 kts 88°
2026-05-05 09:38 52.05316 16.96974 36890 ft 468 kts 88°
2026-05-05 09:39 52.05138 17.07392 36887 ft 462 kts 89°
2026-05-05 09:39 52.04944 17.17859 36885 ft 460 kts 89°
2026-05-05 09:40 52.04745 17.28245 36885 ft 460 kts 89°
2026-05-05 09:40 52.04535 17.38816 36885 ft 460 kts 89°
2026-05-05 09:41 52.04319 17.49284 36884 ft 460 kts 89°
2026-05-05 09:41 52.04094 17.59716 36884 ft 460 kts 89°
2026-05-05 09:42 52.03863 17.70040 36661 ft 460 kts 90°
2026-05-05 09:42 52.03743 17.75249 36410 ft 457 kts 90°
2026-05-05 09:42 52.03622 17.80391 36160 ft 455 kts 90°
2026-05-05 09:43 52.03498 17.85538 35909 ft 452 kts 90°
2026-05-05 09:43 52.03373 17.90634 35658 ft 450 kts 90°
2026-05-05 09:43 52.03247 17.95685 35410 ft 450 kts 90°
2026-05-05 09:43 52.03119 18.00764 35160 ft 450 kts 90°
2026-05-05 09:44 52.02990 18.05818 34907 ft 451 kts 90°
2026-05-05 09:44 52.02859 18.10878 34571 ft 452 kts 90°
2026-05-05 09:44 52.02723 18.16017 34114 ft 453 kts 90°
2026-05-05 09:44 52.02587 18.21050 33545 ft 454 kts 90°
2026-05-05 09:45 52.02448 18.26202 32898 ft 455 kts 90°
2026-05-05 09:45 52.02307 18.31314 32224 ft 458 kts 90°
2026-05-05 09:45 52.02163 18.36455 31523 ft 460 kts 90°
2026-05-05 09:45 52.02015 18.41652 30880 ft 460 kts 91°
2026-05-05 09:46 52.01864 18.46826 30401 ft 457 kts 91°
2026-05-05 09:46 52.01711 18.51957 29922 ft 453 kts 91°
2026-05-05 09:46 52.01557 18.57042 29445 ft 450 kts 91°
2026-05-05 09:46 52.01403 18.62089 28971 ft 446 kts 91°
2026-05-05 09:47 52.01249 18.67082 28499 ft 443 kts 92°
2026-05-05 09:47 52.01094 18.72049 28002 ft 441 kts 92°
2026-05-05 09:47 52.00937 18.76986 27521 ft 438 kts 92°
2026-05-05 09:47 52.00779 18.81901 27049 ft 434 kts 92°
2026-05-05 09:48 52.00619 18.86803 26582 ft 431 kts 93°
2026-05-05 09:48 52.00461 18.91602 26125 ft 428 kts 93°
2026-05-05 09:48 52.00301 18.96407 25666 ft 425 kts 93°
2026-05-05 09:48 52.00157 19.01116 25219 ft 413 kts 93°
2026-05-05 09:49 52.00004 19.05679 24798 ft 405 kts 93°
2026-05-05 09:49 51.99844 19.10169 24386 ft 398 kts 93°
2026-05-05 09:49 51.99684 19.14638 23971 ft 392 kts 93°
2026-05-05 09:49 51.99528 19.19006 23568 ft 386 kts 93°
2026-05-05 09:50 51.99375 19.23331 23168 ft 382 kts 93°
2026-05-05 09:50 51.99223 19.27632 22758 ft 378 kts 93°
2026-05-05 09:50 51.99072 19.31853 22343 ft 375 kts 93°
2026-05-05 09:50 51.98918 19.36043 21927 ft 372 kts 93°
2026-05-05 09:51 51.98763 19.40245 21508 ft 370 kts 93°
2026-05-05 09:51 51.98609 19.44340 21102 ft 367 kts 94°
2026-05-05 09:51 51.98452 19.48475 20686 ft 364 kts 94°
2026-05-05 09:51 51.98295 19.52585 20274 ft 361 kts 94°
2026-05-05 09:52 51.98140 19.56588 19872 ft 359 kts 94°
2026-05-05 09:52 51.97980 19.60657 19462 ft 356 kts 94°
2026-05-05 09:52 51.97823 19.64636 19060 ft 354 kts 94°
2026-05-05 09:52 51.97665 19.68605 18657 ft 351 kts 95°
2026-05-05 09:53 51.97509 19.72526 18259 ft 349 kts 95°
2026-05-05 09:53 51.97354 19.76416 17861 ft 346 kts 95°
2026-05-05 09:53 51.97200 19.80282 17466 ft 344 kts 95°
2026-05-05 09:53 51.97042 19.84184 17066 ft 341 kts 95°
2026-05-05 09:54 51.96886 19.87973 16678 ft 339 kts 95°
2026-05-05 09:54 51.96729 19.91770 16288 ft 336 kts 95°
2026-05-05 09:54 51.96570 19.95564 15897 ft 334 kts 95°
2026-05-05 09:54 51.96410 19.99329 15508 ft 332 kts 95°
2026-05-05 09:55 51.96251 20.03068 15120 ft 329 kts 95°
2026-05-05 09:55 51.96092 20.06755 14736 ft 327 kts 95°
2026-05-05 09:55 51.95934 20.10402 14355 ft 325 kts 96°
2026-05-05 09:55 51.95773 20.14082 13969 ft 323 kts 96°
2026-05-05 09:56 51.95611 20.17750 13583 ft 321 kts 96°
2026-05-05 09:56 51.95451 20.21373 13200 ft 318 kts 96°
2026-05-05 09:56 51.95292 20.24924 12825 ft 316 kts 96°
2026-05-05 09:56 51.95134 20.28473 12449 ft 314 kts 96°
2026-05-05 09:57 51.94978 20.31986 12076 ft 312 kts 96°
2026-05-05 09:57 51.94820 20.35515 11700 ft 310 kts 96°
2026-05-05 09:57 51.94665 20.38936 11337 ft 308 kts 96°
2026-05-05 09:57 51.94506 20.42402 10967 ft 306 kts 96°
2026-05-05 09:58 51.94347 20.45831 10601 ft 304 kts 96°
2026-05-05 09:58 51.94186 20.49262 10234 ft 301 kts 96°
2026-05-05 09:58 51.94028 20.52605 9990 ft 294 kts 96°
2026-05-05 09:58 51.93869 20.55917 9901 ft 286 kts 96°
2026-05-05 09:59 51.93713 20.59140 9649 ft 284 kts 96°
2026-05-05 09:59 51.93559 20.62323 9291 ft 281 kts 96°
2026-05-05 09:59 51.93409 20.65436 8955 ft 279 kts 97°
2026-05-05 09:59 51.93257 20.68583 8620 ft 276 kts 97°
2026-05-05 10:00 51.93109 20.71674 8298 ft 273 kts 97°
2026-05-05 10:00 51.92963 20.74708 7991 ft 269 kts 97°
2026-05-05 10:00 51.92815 20.77715 7674 ft 267 kts 97°
2026-05-05 10:00 51.92667 20.80690 7350 ft 265 kts 97°
2026-05-05 10:01 51.92520 20.83656 7037 ft 262 kts 97°
2026-05-05 10:01 51.92372 20.86605 6719 ft 261 kts 97°
2026-05-05 10:01 51.92223 20.89529 6405 ft 262 kts 97°
2026-05-05 10:01 51.92074 20.92499 6086 ft 260 kts 97°
2026-05-05 10:02 51.91927 20.95401 5779 ft 258 kts 97°
2026-05-05 10:02 51.91782 20.98276 5468 ft 256 kts 97°
2026-05-05 10:02 51.91633 21.01188 5159 ft 255 kts 97°
2026-05-05 10:02 51.91482 21.04130 4838 ft 253 kts 97°
2026-05-05 10:03 51.91334 21.06984 4533 ft 253 kts 97°
2026-05-05 10:03 51.91203 21.09820 4355 ft 238 kts 94°
2026-05-05 10:03 51.91254 21.12490 4254 ft 232 kts 77°
2026-05-05 10:03 51.92063 21.14791 4169 ft 232 kts 43°
2026-05-05 10:04 51.93505 21.15999 4009 ft 235 kts 10°
2026-05-05 10:04 51.95137 21.15754 3760 ft 233 kts 336°
2026-05-05 10:04 51.96583 21.14510 3474 ft 232 kts 328°
2026-05-05 10:04 51.97980 21.13120 3144 ft 230 kts 329°
2026-05-05 10:05 51.99390 21.11776 3005 ft 226 kts 331°
2026-05-05 10:05 52.00829 21.10478 3004 ft 225 kts 332°
2026-05-05 10:05 52.02238 21.09239 2989 ft 215 kts 332°
2026-05-05 10:05 52.03574 21.08054 2945 ft 202 kts 328°
2026-05-05 10:06 52.03933 21.06837 1073 ft 254 kts 126°